Date String (YYYY-MM-DD hh:mm:ss) UTC,Instrument flags,Ambient pressure (hPa),Sample flow (lpm),Bypass flow (lpm),Sample temperature (°C),Ambient temperature (°C),ASC tube jacket temperature (°C),LED temperature (°C),Box temperature (°C),Sample RH (%),Span deviation,Mass concentration (μg/m³),Mass concentration (μg/m³),Mass concentration (μg/m³)
DateTimeUTC,F1_M11,P_M11,Q1_M11,Q2_M11,T1_M11,T2_M11,T3_M11,T4_M11,T5_M11,U1_M11,ZSPAN_M11,X2_M11,X0_M11,X1_M11
2022-11-17 18:00:00,,0833.9,5.00,0.00,21.7,21.1,00.0,30.6,23.5,12.0,0000.0,0004.55,0008.22,0004.36
2022-11-17 18:01:00,,0833.9,5.00,0.00,21.6,20.6,00.0,30.6,23.3,12.0,0000.0,0004.58,0008.37,0004.37
2022-11-17 18:02:00,,0833.9,5.00,0.00,21.6,20.2,00.0,30.6,23.2,11.9,0000.0,0004.59,0008.45,0004.38
2022-11-17 18:03:00,,0833.8,5.01,0.00,21.6,20.0,00.0,30.6,23.1,11.8,0000.0,0004.56,0008.36,0004.37
2022-11-17 18:04:00,,0833.8,5.00,0.00,21.5,19.7,00.0,30.6,23.0,11.8,0000.0,0004.58,0008.31,0004.38
2022-11-17 18:05:00,,0833.7,5.00,0.00,21.5,19.5,00.0,30.6,22.9,12.0,0000.0,0004.61,0008.45,0004.39
2022-11-17 18:06:00,,0833.7,5.00,0.00,21.4,19.4,00.0,30.5,22.9,12.2,0000.0,0004.64,0008.03,0004.41
2022-11-17 18:07:00,,0833.7,5.00,0.00,21.3,19.3,00.0,30.5,22.9,12.3,0000.0,0004.67,0008.08,0004.43
2022-11-17 18:08:00,,0833.7,5.01,0.00,21.4,20.4,00.0,30.4,23.1,12.2,0000.0,0004.71,0008.15,0004.45
2022-11-17 18:09:00,,0833.7,4.99,0.00,21.5,21.6,00.0,30.4,23.4,12.1,0000.0,0004.73,0008.39,0004.44
2022-11-17 18:10:00,,0833.7,5.00,0.00,21.6,21.5,00.0,30.4,23.4,12.1,0000.0,0004.74,0008.54,0004.43
2022-11-17 18:11:00,,0833.7,5.01,0.00,21.6,21.0,00.0,30.5,23.3,12.1,0000.0,0004.75,0008.52,0004.44
2022-11-17 18:12:00,,0833.7,5.00,0.00,21.5,20.5,00.0,30.5,23.2,12.0,0000.0,0004.75,0008.31,0004.45
2022-11-17 18:13:00,,0833.7,4.99,0.00,21.5,20.1,00.0,30.5,23.1,12.0,0000.0,0004.77,0007.84,0004.45
2022-11-17 18:14:00,,0833.7,5.00,0.00,21.5,19.9,00.0,30.5,23.0,12.2,0000.0,0004.79,0008.17,0004.46
2022-11-17 18:15:00,,0833.7,5.01,0.00,21.4,19.7,00.0,30.5,22.9,12.1,0000.0,0004.79,0008.15,0004.47
2022-11-17 18:16:00,,0833.6,5.01,0.00,21.4,19.5,00.0,30.5,22.9,12.1,0000.0,0004.79,0008.31,0004.47
2022-11-17 18:17:00,,0833.6,5.00,0.00,21.3,19.4,00.0,30.5,22.9,12.1,0000.0,0004.80,0008.72,0004.49
2022-11-17 18:18:00,,0833.7,5.00,0.00,21.3,19.5,00.0,30.4,22.9,12.1,0000.0,0004.81,0008.70,0004.51
2022-11-17 18:19:00,,0833.6,5.00,0.00,21.4,20.8,00.0,30.3,23.2,12.1,0000.0,0004.82,0008.69,0004.52
2022-11-17 18:20:00,,0833.7,5.00,0.00,21.5,21.8,00.0,30.3,23.4,12.1,0000.0,0004.81,0008.48,0004.54
2022-11-17 18:21:00,,0833.7,4.99,0.00,21.6,21.6,00.0,30.4,23.5,12.2,0000.0,0004.80,0008.29,0004.56
2022-11-17 18:22:00,,0833.6,5.01,0.00,21.6,21.2,00.0,30.4,23.4,12.0,0000.0,0004.84,0008.42,0004.57
2022-11-17 18:23:00,,0833.6,5.01,0.00,21.6,20.8,00.0,30.5,23.3,11.7,0000.0,0004.86,0008.41,0004.59
2022-11-17 18:24:00,,0833.6,5.00,0.00,21.5,20.4,00.0,30.5,23.2,11.6,0000.0,0004.85,0008.37,0004.61
2022-11-17 18:25:00,,0833.6,4.99,0.00,21.5,20.1,00.0,30.5,23.1,11.8,0000.0,0004.85,0008.16,0004.62
2022-11-17 18:26:00,,0833.5,4.99,0.00,21.5,19.9,00.0,30.5,23.1,12.0,0000.0,0004.87,0008.12,0004.63
2022-11-17 18:27:00,,0833.5,5.00,0.00,21.4,19.6,00.0,30.5,23.0,11.9,0000.0,0004.89,0008.12,0004.65
2022-11-17 18:28:00,,0833.5,5.00,0.00,21.4,19.5,00.0,30.5,23.0,11.9,0000.0,0004.92,0007.56,0004.67
2022-11-17 18:29:00,,0833.5,5.00,0.00,21.3,19.5,00.0,30.4,22.9,11.8,0000.0,0004.94,0007.58,0004.69
2022-11-17 18:30:00,,0833.6,5.01,0.00,21.4,20.6,00.0,30.3,23.1,11.8,0000.0,0004.97,0007.60,0004.72
2022-11-17 18:31:00,,0833.6,4.99,0.00,21.5,21.8,00.0,30.3,23.4,11.7,0000.0,0005.02,0007.76,0004.74
2022-11-17 18:32:00,,0833.6,5.00,0.00,21.6,21.7,00.0,30.4,23.5,11.8,0000.0,0005.05,0007.83,0004.77
2022-11-17 18:33:00,,0833.5,5.00,0.00,21.6,21.1,00.0,30.4,23.4,11.7,0000.0,0005.08,0007.79,0004.80
2022-11-17 18:34:00,,0833.5,5.00,0.00,21.6,20.7,00.0,30.5,23.3,11.8,0000.0,0005.09,0007.78,0004.81
2022-11-17 18:35:00,,0833.5,5.00,0.00,21.5,20.4,00.0,30.5,23.2,11.8,0000.0,0005.12,0007.79,0004.83
2022-11-17 18:36:00,,0833.6,5.00,0.00,21.5,20.1,00.0,30.5,23.2,11.8,0000.0,0005.13,0007.90,0004.83
2022-11-17 18:37:00,,0833.5,5.00,0.00,21.5,19.9,00.0,30.5,23.1,11.9,0000.0,0005.12,0008.28,0004.83
2022-11-17 18:38:00,,0833.5,5.01,0.00,21.5,19.8,00.0,30.5,23.1,12.0,0000.0,0005.11,0008.59,0004.83
2022-11-17 18:39:00,,0833.5,5.00,0.00,21.4,19.8,00.0,30.5,23.1,12.3,0000.0,0005.10,0009.50,0004.82
2022-11-17 18:40:00,,0833.5,5.00,0.00,21.4,19.8,00.0,30.5,23.0,12.1,0000.0,0005.11,0009.71,0004.82
2022-11-17 18:41:00,,0833.4,5.00,0.00,21.4,19.7,00.0,30.4,23.0,12.0,0000.0,0005.12,0010.06,0004.81
2022-11-17 18:42:00,,0833.4,5.00,0.00,21.4,20.5,00.0,30.4,23.1,12.0,0000.0,0005.10,0009.98,0004.81
2022-11-17 18:43:00,,0833.5,5.00,0.00,21.5,21.8,00.0,30.3,23.4,12.0,0000.0,0005.11,0009.97,0004.81
2022-11-17 18:44:00,,0833.4,5.01,0.00,21.7,22.1,00.0,30.4,23.6,12.0,0000.0,0005.10,0009.93,0004.82
2022-11-17 18:45:00,,0833.4,4.98,0.00,21.7,21.6,00.0,30.4,23.6,12.2,0000.0,0005.08,0009.91,0004.81
2022-11-17 18:46:00,,0833.4,5.00,0.00,21.7,21.1,00.0,30.5,23.4,12.1,0000.0,0005.07,0009.88,0004.80
2022-11-17 18:47:00,,0833.4,5.00,0.00,21.7,20.8,00.0,30.5,23.4,11.9,0000.0,0005.07,0009.85,0004.80
2022-11-17 18:48:00,,0833.4,5.00,0.00,21.6,20.5,00.0,30.5,23.3,11.8,0000.0,0005.08,0009.55,0004.81
2022-11-17 18:49:00,,0833.4,5.00,0.00,21.6,20.4,00.0,30.5,23.3,12.0,0000.0,0005.08,0009.09,0004.80
2022-11-17 18:50:00,,0833.4,5.00,0.00,21.6,20.2,00.0,30.5,23.3,12.2,0000.0,0005.08,0008.39,0004.79
2022-11-17 18:51:00,,0833.3,5.00,0.00,21.6,20.1,00.0,30.5,23.2,12.3,0000.0,0005.08,0008.10,0004.80
2022-11-17 18:52:00,,0833.3,5.00,0.00,21.5,20.0,00.0,30.5,23.2,12.6,0000.0,0005.05,0007.60,0004.80
2022-11-17 18:53:00,,0833.3,5.00,0.00,21.5,19.9,00.0,30.5,23.2,12.6,0000.0,0005.06,0007.68,0004.81
2022-11-17 18:54:00,,0833.3,5.00,0.00,21.5,19.8,00.0,30.5,23.1,12.5,0000.0,0005.04,0008.38,0004.80
2022-11-17 18:55:00,,0833.3,5.00,0.00,21.5,19.7,00.0,30.5,23.1,12.3,0000.0,0005.03,0008.39,0004.79
2022-11-17 18:56:00,,0833.2,5.00,0.00,21.4,19.6,00.0,30.5,23.1,12.3,0000.0,0005.02,0008.39,0004.77
2022-11-17 18:57:00,,0833.1,5.01,0.00,21.4,19.9,00.0,30.5,23.1,12.2,0000.0,0005.01,0008.60,0004.77
2022-11-17 18:58:00,,0833.2,5.00,0.00,21.5,21.2,00.0,30.4,23.3,12.1,0000.0,0005.00,0008.59,0004.76
2022-11-17 18:59:00,,0833.2,4.99,0.00,21.6,22.0,00.0,30.4,23.6,12.0,0000.0,0004.99,0008.67,0004.75
